EW8328 Weather Reports


time (UTC)temp
C
wind
direction
speed
KPH
gust
KPH
rain 1hr
cm
rain 24hr
cm
rain mn
cm
humidity
%
barometer
mb
20260903005316 17 253 9.7 20.9 0.03 0.23 0.03 92 1009.5
20260903003816 17 240 9.7 19.3 0.03 0.23 0.03 92 1009.9
20260903003316 17 228 9.7 19.3 0.03 0.23 0.03 92 1009.7
20260903002817 17 216 12.9 25.7 0.03 0.23 0.03 92 1009.7
20260903002316 17 234 9.7 22.5 0.03 0.23 0.03 92 1009.7
20260903001816 17 229 9.7 16.1 0.00 0.20 0.00 92 1009.9
20260903001315 17 232 8.0 22.5 0.00 0.20 0.00 92 1009.9
20260903000816 17 216 9.7 19.3 0.00 0.20 0.00 92 1010.0
20260903000317 17 219 6.4 11.3 0.00 0.20 0.00 92 1010.1
20260902235816 17 221 8.0 19.3 0.00 0.20 0.00 92 1010.1
20260902235315 17 239 6.4 12.9 0.00 0.20 0.00 92 1010.1
20260902234816 17 228 8.0 16.1 0.00 0.20 0.00 92 1010.1
20260902234315 17 238 9.7 16.1 0.00 0.20 0.00 92 1010.0
20260902233816 17 209 8.0 19.3 0.00 0.20 0.00 92 1010.0
20260902232815 17 229 6.4 12.9 0.00 0.20 0.00 93 1010.3
20260902232316 17 241 4.8 11.3 0.00 0.20 0.00 93 1010.2
20260902231816 17 219 6.4 11.3 0.03 0.20 0.00 93 1010.2
20260902231315 17 225 4.8 14.5 0.05 0.20 0.00 93 1010.3
20260902230856 17 216 8.0 14.5 0.05 0.20 0.00 93 1010.2
20260902230316 17 225 8.0 12.9 0.05 0.20 0.00 93 1010.2
20260902225816 17 226 8.0 14.5 0.05 0.20 0.20 93 1010.2
20260902225316 17 212 9.7 22.5 0.05 0.20 0.20 93 1010.4
20260902224816 17 213 9.7 22.5 0.05 0.20 0.20 93 1010.3
20260902224316 17 203 11.3 19.3 0.05 0.20 0.20 93 1010.2
20260902223315 17 207 8.0 16.1 0.05 0.20 0.20 93 1010.2
20260902221816 17 206 8.0 12.9 0.05 0.20 0.20 92 1010.5
20260902221317 17 207 8.0 14.5 0.00 0.15 0.15 92 1010.4
20260902220815 17 214 8.0 16.1 0.00 0.15 0.15 92 1010.4
20260902220316 17 236 6.4 11.3 0.00 0.15 0.15 92 1010.5
20260902215816 17 216 6.4 11.3 0.00 0.15 0.15 92 1010.3
20260902215316 17 217 4.8 11.3 0.00 0.15 0.15 92 1010.4
20260902214816 17 239 6.4 12.9 0.00 0.15 0.15 92 1010.5
20260902214316 17 241 6.4 11.3 0.00 0.15 0.15 92 1010.6
20260902213816 17 228 8.0 14.5 0.00 0.15 0.15 91 1010.7
20260902213315 17 227 8.0 19.3 0.00 0.15 0.15 91 1010.7
20260902212816 17 215 6.4 14.5 0.00 0.15 0.15 91 1010.6
20260902212316 17 245 9.7 19.3 0.00 0.15 0.15 91 1010.5
20260902211815 17 222 9.7 19.3 0.00 0.15 0.15 91 1010.5
20260902211316 17 219 8.0 14.5 0.00 0.15 0.15 91 1010.5
20260902210316 17 219 6.4 12.9 0.00 0.15 0.15 91 1010.5
20260902205815 17 227 6.4 19.3 0.00 0.15 0.15 91 1010.5
20260902205315 17 245 6.4 14.5 0.00 0.15 0.15 91 1010.4
20260902204815 17 244 8.0 14.5 0.00 0.15 0.15 92 1010.4
20260902203816 17 219 6.4 16.1 0.00 0.15 0.15 92 1010.3
20260902203316 17 243 6.4 12.9 0.00 0.15 0.15 92 1010.4
20260902202816 17 214 4.8 11.3 0.00 0.15 0.15 92 1010.5
20260902202315 17 236 4.8 9.7 0.00 0.15 0.15 92 1010.4
20260902201816 17 248 4.8 12.9 0.00 0.15 0.15 92 1010.3
20260902201317 17 221 8.0 16.1 0.00 0.15 0.15 92 1010.4
20260902200815 17 238 6.4 11.3 0.00 0.15 0.15 92 1010.4
20260902195816 17 220 4.8 11.3 0.00 0.15 0.15 92 1010.4
20260902195315 17 241 4.8 12.9 0.00 0.15 0.15 93 1010.4
20260902194816 17 258 4.8 11.3 0.00 0.15 0.15 93 1010.3
20260902193315 17 248 8.0 11.3 0.00 0.15 0.15 93 1010.3
20260902192816 17 242 4.8 12.9 0.00 0.15 0.15 93 1010.2
20260902192316 17 252 6.4 12.9 0.00 0.15 0.15 93 1010.2
20260902191816 17 245 8.0 12.9 0.00 0.15 0.15 93 1010.2
20260902191316 17 247 8.0 14.5 0.00 0.15 0.15 94 1010.3
20260902190816 17 241 6.4 12.9 0.00 0.15 0.15 94 1010.3
20260902190315 17 239 6.4 11.3 0.00 0.15 0.15 94 1010.4
20260902185816 17 247 4.8 9.7 0.00 0.15 0.15 94 1010.4
20260902185318 17 249 6.4 9.7 0.00 0.15 0.15 94 1010.5
20260902184816 17 256 3.2 9.7 0.00 0.15 0.15 94 1010.4
20260902184316 17 241 4.8 9.7 0.00 0.15 0.15 94 1010.5
20260902183815 17 208 4.8 9.7 0.00 0.15 0.15 94 1010.5
20260902183315 17 212 1.6 4.8 0.00 0.15 0.15 94 1010.4
20260902182815 17 186 1.6 4.8 0.00 0.15 0.15 94 1010.4
20260902182316 17 186 3.2 8.0 0.00 0.15 0.15 94 1010.4
20260902181816 17 199 4.8 8.0 0.00 0.15 0.15 93 1010.4
20260902181316 17 216 4.8 9.7 0.00 0.15 0.15 93 1010.5
20260902180816 17 211 4.8 9.7 0.00 0.15 0.15 93 1010.4
20260902180315 17 198 3.2 12.9 0.00 0.15 0.15 92 1010.4
20260902175815 17 236 3.2 8.0 0.00 0.15 0.15 92 1010.4
20260902175315 17 207 3.2 4.8 0.00 0.15 0.15 92 1010.4
20260902174817 17 196 3.2 9.7 0.00 0.15 0.15 92 1010.4
20260902174315 17 205 4.8 8.0 0.00 0.15 0.15 92 1010.4
20260902173816 17 183 3.2 4.8 0.00 0.15 0.15 92 1010.4
20260902173317 17 183 3.2 8.0 0.00 0.15 0.15 92 1010.5
20260902172815 17 193 3.2 8.0 0.00 0.15 0.15 92 1010.5
20260902172317 17 191 1.6 4.8 0.00 0.15 0.15 92 1010.5
20260902171815 17 191 1.6 4.8 0.00 0.15 0.15 92 1010.6
20260902171316 17 197 1.6 3.2 0.00 0.15 0.15 92 1010.6
20260902170815 17 197 1.6 4.8 0.00 0.15 0.15 91 1010.6
20260902170315 17 209 1.6 4.8 0.00 0.15 0.15 91 1010.7
20260902165816 17 209 1.6 4.8 0.00 0.15 0.15 91 1010.8
20260902165314 17 195 3.2 9.7 0.00 0.15 0.15 90 1010.9
20260902164816 17 204 6.4 11.3 0.00 0.15 0.15 90 1011.0
20260902164317 17 210 4.8 11.3 0.00 0.15 0.15 90 1011.0
20260902163315 17 190 8.0 12.9 0.00 0.15 0.15 89 1011.0
20260902162816 17 162 4.8 16.1 0.00 0.15 0.15 90 1010.9
20260902161816 17 174 6.4 12.9 0.00 0.15 0.15 90 1011.2
20260902161316 17 188 8.0 19.3 0.00 0.15 0.15 91 1011.3
20260902160816 17 200 6.4 16.1 0.00 0.15 0.15 92 1011.3
20260902160315 16 151 4.8 12.9 0.00 0.15 0.15 93 1011.3
20260902155816 16 151 3.2 9.7 0.00 0.15 0.15 93 1011.3
20260902154815 16 135 3.2 11.3 0.00 0.15 0.15 93 1011.4
20260902154316 16 133 4.8 8.0 0.00 0.15 0.15 93 1011.5
20260902153816 16 76 3.2 8.0 0.00 0.15 0.15 93 1011.6
20260902153315 16 111 3.2 9.7 0.00 0.15 0.15 93 1011.7
20260902152816 16 71 1.6 4.8 0.00 0.15 0.15 93 1011.7
20260902152315 16 76 3.2 4.8 0.00 0.15 0.15 93 1011.8
20260902151816 16 100 3.2 4.8 0.00 0.15 0.15 93 1011.8
20260902151315 16 110 3.2 11.3 0.00 0.15 0.15 93 1011.9
20260902150815 16 133 4.8 11.3 0.00 0.15 0.15 93 1011.9
20260902150316 16 144 3.2 8.0 0.03 0.15 0.15 93 1011.9
20260902145816 16 151 1.6 8.0 0.03 0.15 0.15 93 1012.0
20260902145316 16 180 4.8 9.7 0.05 0.15 0.15 93 1012.0
20260902144815 15 151 1.6 8.0 0.05 0.15 0.15 93 1012.2
20260902144315 15 158 4.8 9.7 0.05 0.15 0.15 93 1012.2
20260902143815 15 115 4.8 9.7 0.05 0.15 0.15 94 1012.2
20260902143315 15 103 3.2 8.0 0.05 0.15 0.15 94 1012.2
20260902142815 15 111 4.8 8.0 0.05 0.15 0.15 94 1012.3
20260902142315 15 77 4.8 11.3 0.05 0.15 0.15 93 1012.3
20260902141815 15 106 8.0 14.5 0.05 0.15 0.15 93 1012.4
20260902141315 15 108 4.8 11.3 0.05 0.15 0.15 93 1012.5
20260902140315 15 94 8.0 14.5 0.05 0.15 0.15 93 1012.6
20260902135816 15 77 6.4 12.9 0.05 0.15 0.15 93 1012.6
20260902134815 15 93 3.2 9.7 0.03 0.13 0.13 92 1012.7
20260902134315 15 105 3.2 8.0 0.05 0.13 0.13 92 1012.9
20260902133815 15 115 4.8 11.3 0.05 0.13 0.13 91 1012.9
20260902133315 15 117 8.0 14.5 0.03 0.10 0.10 90 1012.9
20260902132815 15 116 4.8 11.3 0.03 0.10 0.10 90 1013.0
20260902131815 15 123 4.8 12.9 0.03 0.10 0.10 90 1013.1
20260902131315 15 114 8.0 12.9 0.03 0.10 0.10 90 1013.1
20260902130815 15 99 4.8 14.5 0.03 0.10 0.10 90 1013.2
20260902125315 15 103 4.8 12.9 0.03 0.10 0.10 89 1013.4
20260902124315 15 105 4.8 11.3 0.00 0.08 0.08 89 1013.5
20260902123815 15 95 3.2 11.3 0.00 0.08 0.08 89 1013.5
20260902123316 15 155 4.8 11.3 0.03 0.08 0.08 88 1013.5
20260902122314 15 111 8.0 12.9 0.05 0.08 0.08 88 1013.7
20260902121815 15 112 8.0 14.5 0.05 0.08 0.08 88 1013.8
20260902120815 15 95 4.8 9.7 0.05 0.08 0.08 89 1013.8
20260902120315 15 88 4.8 11.3 0.05 0.08 0.08 89 1014.0
20260902115815 15 143 4.8 9.7 0.05 0.08 0.08 89 1014.1
20260902115315 15 202 4.8 11.3 0.05 0.08 0.08 87 1014.2
20260902114815 15 162 4.8 11.3 0.08 0.08 0.08 88 1014.3
20260902113815 15 154 4.8 12.9 0.08 0.08 0.08 87 1014.4
20260902113315 15 154 4.8 12.9 0.05 0.05 0.05 86 1014.6
20260902112816 15 158 6.4 11.3 0.05 0.05 0.05 85 1014.6
20260902111816 15 175 4.8 12.9 0.03 0.03 0.03 85 1014.9
20260902110316 15 185 4.8 12.9 0.03 0.03 0.03 86 1015.0
20260902104816 16 164 8.0 11.3 0.00 0.00 0.00 82 1015.1
20260902104315 16 182 8.0 14.5 0.00 0.00 0.00 81 1015.2
20260902103315 16 170 4.8 12.9 0.00 0.00 0.00 83 1015.2
20260902102815 16 184 4.8 11.3 0.00 0.00 0.00 83 1015.2
20260902102314 16 182 6.4 16.1 0.00 0.00 0.00 83 1015.1
20260902101815 16 178 9.7 16.1 0.00 0.00 0.00 84 1015.2
20260902101315 16 193 6.4 12.9 0.00 0.00 0.00 86 1015.2
20260902100815 16 219 8.0 12.9 0.00 0.00 0.00 85 1015.3
20260902100315 16 211 4.8 12.9 0.00 0.00 0.00 86 1015.3
20260902095815 15 190 6.4 12.9 0.00 0.00 0.00 87 1015.3
20260902094815 15 208 4.8 11.3 0.00 0.00 0.00 89 1015.4
20260902093815 15 197 4.8 11.3 0.00 0.00 0.00 89 1015.3
20260902093315 15 200 4.8 8.0 0.00 0.00 0.00 89 1015.4
20260902092815 15 194 4.8 8.0 0.00 0.00 0.00 89 1015.4
20260902092314 15 175 4.8 8.0 0.00 0.00 0.00 89 1015.4
20260902091815 15 214 8.0 14.5 0.00 0.00 0.00 89 1015.4
20260902091315 15 207 8.0 12.9 0.00 0.00 0.00 89 1015.4
20260902090315 15 186 4.8 9.7 0.00 0.00 0.00 89 1015.4
20260902085815 15 225 4.8 11.3 0.00 0.00 0.00 89 1015.4
20260902085315 15 201 4.8 11.3 0.00 0.00 0.00 89 1015.5
20260902084815 15 184 3.2 9.7 0.00 0.00 0.00 89 1015.4
20260902083815 15 217 3.2 8.0 0.00 0.00 0.00 89 1015.5
20260902083315 15 194 4.8 8.0 0.00 0.00 0.00 89 1015.4
20260902082816 15 205 3.2 8.0 0.00 0.00 0.00 89 1015.4
20260902082314 14 196 4.8 9.7 0.00 0.00 0.00 89 1015.4
20260902081815 14 187 3.2 9.7 0.00 0.00 0.00 89 1015.5
20260902080815 14 267 4.8 9.7 0.00 0.00 0.00 89 1015.5
20260902080315 14 244 3.2 4.8 0.00 0.00 0.00 88 1015.5
20260902075814 14 237 8.0 14.5 0.00 0.00 0.00 88 1015.5
20260902074815 14 288 3.2 8.0 0.00 0.00 0.00 89 1015.5
20260902074314 14 215 3.2 4.8 0.00 0.00 0.00 89 1015.4
20260902073814 14 196 3.2 9.7 0.00 0.00 0.00 89 1015.5
20260902073315 14 220 1.6 4.8 0.00 0.00 0.00 89 1015.4
20260902072815 14 226 4.8 8.0 0.00 0.00 0.00 89 1015.3
20260902072316 14 270 4.8 8.0 0.00 0.00 0.00 89 1015.3
20260902071315 14 162 3.2 9.7 0.00 0.00 0.00 89 1015.3
20260902070815 14 154 3.2 8.0 0.00 0.00 0.00 89 1015.3
20260902070315 13 210 3.2 8.0 0.00 0.00 0.00 89 1015.3
20260902065314 13 181 3.2 8.0 0.00 0.00 0.00 89 1015.2
20260902064815 13 176 1.6 4.8 0.00 0.00 0.00 89 1015.2
20260902063814 13 209 4.8 9.7 0.00 0.00 0.00 89 1015.2
20260902063314 13 217 3.2 8.0 0.00 0.00 0.00 89 1015.1
20260902062815 13 217 4.8 9.7 0.00 0.00 0.00 90 1015.2
20260902062314 13 194 4.8 9.7 0.00 0.00 0.00 90 1015.2
20260902061814 13 194 4.8 11.3 0.00 0.00 0.00 90 1015.2
20260902061315 13 197 1.6 4.8 0.00 0.00 0.00 90 1015.3
20260902060815 13 229 4.8 9.7 0.00 0.00 0.00 90 1015.2
20260902055815 13 183 6.4 11.3 0.00 0.00 0.00 90 1015.0
20260902055315 13 184 3.2 8.0 0.00 0.00 0.00 90 1015.0
20260902054815 13 181 1.6 4.8 0.00 0.00 0.00 90 1014.9
20260902054314 13 135 1.6 3.2 0.00 0.00 0.00 90 1014.9
20260902053815 13 135 0.0 3.2 0.00 0.00 0.00 90 1014.9
20260902053315 13 135 0.0 3.2 0.00 0.00 0.00 90 1015.0
20260902052815 13 135 0.0 1.6 0.00 0.00 0.00 90 1015.0
20260902052314 13 135 1.6 3.2 0.00 0.00 0.00 89 1015.0
20260902051815 13 135 0.0 3.2 0.00 0.00 0.00 89 1014.9
20260902051314 13 135 1.6 4.8 0.00 0.00 0.00 89 1014.9
20260902050815 13 135 1.6 3.2 0.00 0.00 0.00 89 1015.0
20260902050316 13 135 1.6 3.2 0.00 0.00 0.00 89 1014.9
20260902045814 14 159 1.6 3.2 0.00 0.00 0.00 89 1014.9
20260902045315 14 271 1.6 3.2 0.00 0.00 0.00 89 1014.9
20260902044814 14 271 1.6 1.6 0.00 0.00 0.00 89 1014.9
20260902043315 14 271 0.0 1.6 0.00 0.00 0.00 89 1015.0
20260902042815 14 271 0.0 1.6 0.00 0.00 0.00 89 1015.0
20260902042314 14 271 0.0 3.2 0.00 0.00 0.00 89 1015.0
20260902041815 14 271 0.0 3.2 0.00 0.00 0.00 88 1015.0
20260902041314 14 271 1.6 4.8 0.00 0.00 0.00 88 1015.0
20260902040814 14 204 1.6 4.8 0.00 0.00 0.00 88 1015.0
20260902035815 14 220 0.0 3.2 0.00 0.00 0.00 88 1015.0
20260902035314 14 220 1.6 3.2 0.00 0.00 0.00 88 1015.0
20260902034815 14 220 1.6 3.2 0.00 0.00 0.00 88 1015.0
20260902034315 14 220 1.6 4.8 0.00 0.00 0.00 88 1014.9
20260902033814 14 200 1.6 3.2 0.00 0.00 0.00 88 1015.0
20260902032815 14 200 0.0 1.6 0.00 0.00 0.00 89 1015.0
20260902032314 14 200 3.2 4.8 0.00 0.00 0.00 89 1015.0
20260902031815 13 212 3.2 4.8 0.00 0.00 0.00 89 1015.0
20260902031314 13 211 1.6 3.2 0.00 0.00 0.00 89 1015.0
20260902030815 13 211 1.6 4.8 0.00 0.00 0.00 89 1015.0
20260902030314 13 236 1.6 3.2 0.00 0.00 0.00 88 1015.0
20260902025814 13 236 0.0 1.6 0.00 0.00 0.00 88 1015.1
20260902025315 13 236 0.0 3.2 0.00 0.00 0.00 88 1015.1
20260902024815 13 236 0.0 3.2 0.00 0.00 0.00 88 1015.3
20260902024315 13 236 1.6 1.6 0.00 0.00 0.00 87 1015.4
20260902023814 13 236 3.2 4.8 0.00 0.00 0.00 87 1015.4
20260902023315 13 236 1.6 4.8 0.00 0.00 0.00 87 1015.4
20260902022814 13 271 1.6 4.8 0.00 0.00 0.00 87 1015.4
20260902022314 13 245 1.6 4.8 0.00 0.00 0.00 87 1015.5
20260902021814 14 245 3.2 4.8 0.00 0.00 0.00 86 1015.5
20260902021314 14 263 1.6 4.8 0.00 0.00 0.00 86 1015.5
20260902020815 14 257 3.2 9.7 0.00 0.00 0.00 85 1015.6
20260902020314 14 212 4.8 11.3 0.00 0.00 0.00 85 1015.7
20260902015815 14 220 6.4 9.7 0.00 0.00 0.00 85 1015.7
20260902015314 14 197 3.2 4.8 0.00 0.00 0.00 85 1015.6
20260902014315 14 207 3.2 4.8 0.00 0.00 0.00 85 1015.6
20260902013814 15 206 3.2 4.8 0.00 0.00 0.00 85 1015.6
20260902013314 15 206 0.0 3.2 0.00 0.00 0.00 85 1015.7
20260902012814 14 206 0.0 3.2 0.00 0.00 0.00 85 1015.7
20260902012314 14 206 1.6 4.8 0.00 0.00 0.00 85 1015.6
20260902011815 14 153 4.8 12.9 0.00 0.00 0.00 85 1015.7
20260902011316 14 21 0.0 3.2 0.00 0.00 0.00 85 1015.7
20260902010815 14 27 3.2 4.8 0.00 0.00 0.00 84 1015.7
20260902010314 14 106 1.6 3.2 0.00 0.00 0.00 84 1015.7
20260902005816 15 213 3.2 9.7 0.00 0.00 0.00 84 1015.6